Tracking 20942 objects as of 10-Jul-2020
HD Live streaming from Space Station
objects crossing your sky now

COSMOS 1717

Track COSMOS 1717 now!
10-day predictions
COSMOS 1717 is classified as:


NORAD ID: 16450
Int'l Code: 1986-002B
Perigee: 1,481.9 km
Apogee: 1,520.6 km
Inclination: 74.0 °
Period: 115.9 minutes
Semi major axis: 7872 km
RCS: 0.7102 m2 (medium)
Launch date: January 9, 1986
Source: Commonwealth of Independent States (former USSR) (CIS)
Launch site: PLESETSK MISSILE AND SPACE COMPLEX (PKMTR)
aabbcc
Your satellite tracking list
Your tracking list is empty




NASA's NSSDC Master Catalog

Two Line Element Set (TLE):
1 16450U 86002B   20192.15668221 -.00000010  00000-0  41692-4 0  9995
2 16450  73.9878 153.6960 0024591 311.4735  60.4603 12.42955834565643
Source of the keplerian elements: AFSPC